This demonstration page uses our WeatherBlox Daily Observations layout. Learn more.

Left ArrowRight Arrow

Hourly Observations for November 22, 2015

Temp ( °F °C ) Dew Point ( °F °C ) Humidity (%) Winds ( mph kmh ) Pressure ( in mb ) Visibility ( mi km ) Precip ( " mm )
12:51 am 00:51 Clear 48 8.9 23 -5 37 37 SE 12 19 30.13 1020 10 16.0934 N/A
1:51 am 01:51 Clear 45 7.2 24 -4.4 44 44 SE 10 17 30.13 1020 10 16.0934 N/A
2:51 am 02:51 Clear 45 7.2 23 -5 42 42 E 12 19 30.13 1020 10 16.0934 N/A
3:51 am 03:51 Clear 43 6.1 23 -5 45 45 ESE 8 13 30.24 1024 10 16.0934 N/A
4:51 am 04:51 Clear 43 6.1 24 -4.4 47 47 SE 12 19 30.14 1021 10 16.0934 N/A
5:51 am 05:51 Clear 42 5.6 25 -3.9 51 51 SE 13 20 30.16 1021 10 16.0934 N/A
6:51 am 06:51 Clear 42 5.6 23 -5 47 47 ESE 10 17 30.18 1022 10 16.0934 N/A
7:51 am 07:51 Sunny 43 6.1 23 -5 45 45 ESE 9 15 30.2 1023 10 16.0934 N/A
8:51 am 08:51 Sunny 48 8.9 23 -5 37 37 SE 14 22 30.21 1023 10 16.0934 N/A
9:51 am 09:51 Sunny 53 11.7 25 -3.9 34 34 ESE 12 19 30.2 1023 10 16.0934 N/A
10:51 am 10:51 Sunny 57 13.9 25 -3.9 29 29 SE 9 15 30.17 1022 10 16.0934 N/A
11:51 am 11:51 Sunny 60 15.6 25 -3.9 26 26 SE 7 11 30.12 1020 10 16.0934 N/A
12:51 pm 12:51 Sunny 64 17.8 23 -5 21 21 ESE 8 13 30.08 1019 10 16.0934 N/A
1:51 pm 13:51 Sunny 66 18.9 23 -5 19 19 ESE 10 17 30.04 1017 10 16.0934 N/A
2:51 pm 14:51 Sunny 67 19.4 23 -5 19 19 SE 9 15 30.01 1016 10 16.0934 N/A
3:51 pm 15:51 Sunny 67 19.4 24 -4.4 20 20 SE 6 9 30.01 1016 10 16.0934 N/A
4:51 pm 16:51 Sunny 65 18.3 24 -4.4 21 21 SSW 7 11 30.01 1016 10 16.0934 N/A
5:51 pm 17:51 Clear 56 13.3 25 -3.9 30 30 SSE 3 6 30.03 1017 10 16.0934 N/A
6:51 pm 18:51 Clear 53 11.7 25 -3.9 34 34 ESE 6 9 30.04 1017 10 16.0934 N/A
7:51 pm 19:51 Clear 51 10.6 26 -3.3 38 38 ESE 8 13 30.05 1018 10 16.0934 N/A
8:51 pm 20:51 Clear 50 10 27 -2.8 41 41 E 8 13 30.04 1017 10 16.0934 N/A
9:51 pm 21:51 Clear 53 11.7 26 -3.3 35 35 SSE 10 17 30.05 1018 10 16.0934 N/A
10:51 pm 22:51 Clear 52 11.1 24 -4.4 34 34 ESE 9 15 30.05 1018 10 16.0934 N/A
11:51 pm 23:51 Clear 52 11.1 27 -2.8 38 38 SE 10 17 30.04 1017 10 16.0934 N/A

Powered by AerisWeather